Location: D�rnast
(49.6426°N, 11.9755°E)
Time: 13:32:10
(UTC+00:00)

SAR-Lupe-4 - Pass Details

Date: 24 January 2021
Orbit: 480 x 484 km, 98.2° (Epoch: 25 February)

Event Time Altitude Azimuth Distance (km) Brightness Sun altitude
Exits shadow 18:24:12 45° 321° (NW) 673 4.4 -24.0°
Maximum altitude 18:24:45 50° 289° (WNW) 628 4.4 -24.1°
Drops below altitude 10° 18:28:12 10° 214° (SW) 1,658 6.7 -24.6°
Sets 18:30:17 0° 209° (SSW) 2,532 7.6 -25.0°
